Stations météo

réclame
Mon MeteoGroup
Cordoba Aeropuerto (AWS), Espagne (8410): Température de l'air & dewpoint: 18.01.2018 09:00:00 - 24.01.2018 09:00:00 (CET)Cordoba Aeropuerto (AWS), Espagne (8410): Vitesse du vent: 18.01.2018 09:00:00 - 24.01.2018 09:00:00 (CET)Cordoba Aeropuerto (AWS), Espagne (8410): Direction du vent: 18.01.2018 09:00:00 - 24.01.2018 09:00:00 (CET)Cordoba Aeropuerto (AWS), Espagne (8410): reduced air pressure: 18.01.2018 09:00:00 - 24.01.2018 09:00:00 (CET)Cordoba Aeropuerto (AWS), Espagne (8410): visibility: 18.01.2018 09:00:00 - 24.01.2018 09:00:00 (CET)
Date & Time tt [°C] td [°C] ff [km/h] ff [knt] dd ppp [hPa] vv [km]
24.01.2018 09:00:00 - - - - - - -
24.01.2018 08:00:00 4,0 4,0 0 0 N 1028,4 -
24.01.2018 07:00:00 3,9 3,9 8 4 E 1028,1 -
24.01.2018 06:00:00 4,2 4,2 0 0 N 1027,9 -
24.01.2018 05:00:00 3,9 3,9 0 0 N 1027,9 -
24.01.2018 04:00:00 3,9 3,8 0 0 N 1028,0 -
24.01.2018 03:00:00 4,5 4,4 0 0 N 1028,1 -
24.01.2018 02:00:00 4,9 4,6 0 0 N 1028,2 -
24.01.2018 01:00:00 5,9 5,6 0 0 N 1028,3 -
24.01.2018 00:00:00 6,3 5,9 0 0 N 1028,3 -
23.01.2018 23:00:00 7,3 6,7 0 0 N 1028,0 -
23.01.2018 22:00:00 8,3 7,2 0 0 N 1027,5 -
23.01.2018 21:00:00 9,5 7,4 0 0 N 1027,4 -
23.01.2018 20:00:00 11,7 8,0 0 0 N 1027,0 -
23.01.2018 19:00:00 15,4 9,7 0 0 N 1026,2 -
23.01.2018 18:00:00 19,7 9,6 0 0 N 1025,7 -
23.01.2018 17:00:00 21,6 7,8 0 0 N 1025,4 -
23.01.2018 16:00:00 19,9 7,4 0 0 N 1025,4 -
23.01.2018 15:00:00 19,1 7,7 0 0 N 1025,8 -
23.01.2018 14:00:00 17,4 9,0 0 0 N 1026,7 -
23.01.2018 13:00:00 - - - - - - -
23.01.2018 12:00:00 12,4 7,5 5 3 ENE 1028,7 -
23.01.2018 11:00:00 10,0 7,4 4 2 E 1029,2 -
23.01.2018 10:00:00 6,2 5,9 0 0 N 1029,0 10
23.01.2018 09:00:00 2,3 2,3 0 0 N 1029,0 -
23.01.2018 08:00:00 1,9 1,9 0 0 N 1028,4 -
23.01.2018 07:00:00 2,2 2,2 0 0 N 1028,0 -
23.01.2018 06:00:00 2,7 2,7 0 0 N 1028,0 -
23.01.2018 05:00:00 3,3 3,3 0 0 N 1028,1 -
23.01.2018 04:00:00 3,8 3,7 0 0 N 1028,3 -
23.01.2018 03:00:00 4,3 4,2 0 0 N 1028,5 -
23.01.2018 02:00:00 4,6 4,3 0 0 N 1028,4 -
23.01.2018 01:00:00 6,0 5,6 0 0 N 1028,7 -
23.01.2018 00:00:00 6,8 6,5 0 0 N 1028,6 -
22.01.2018 23:00:00 7,8 7,4 0 0 N 1028,4 -
22.01.2018 22:00:00 7,9 7,3 0 0 N 1028,2 -
22.01.2018 21:00:00 9,7 8,8 0 0 N 1027,8 -
22.01.2018 20:00:00 11,5 9,9 0 0 N 1027,4 -
22.01.2018 19:00:00 14,2 10,4 0 0 N 1027,0 -
22.01.2018 18:00:00 17,9 10,8 0 0 N 1026,6 -
22.01.2018 17:00:00 18,9 10,5 0 0 N 1026,6 -
22.01.2018 16:00:00 18,4 10,6 0 0 N 1026,6 15
22.01.2018 15:00:00 16,8 10,0 0 0 N 1027,3 -
22.01.2018 14:00:00 15,0 9,6 4 2 ENE 1028,3 -
22.01.2018 13:00:00 13,0 8,8 8 4 ENE 1029,5 8
22.01.2018 12:00:00 10,1 8,2 8 4 ENE 1030,5 -
22.01.2018 11:00:00 6,5 6,4 4 2 ENE 1031,3 -
22.01.2018 10:00:00 4,8 4,7 0 0 N 1031,2 0,2
22.01.2018 09:00:00 4,8 4,7 4 2 E 1030,7 -
22.01.2018 08:00:00 4,2 4,1 4 2 E 1030,8 -
22.01.2018 07:00:00 2,8 2,7 0 0 N 1030,5 -
22.01.2018 06:00:00 2,6 2,5 0 0 N 1030,2 -
22.01.2018 05:00:00 3,7 3,6 0 0 N 1030,4 -
22.01.2018 04:00:00 4,4 4,3 0 0 N 1030,3 -
22.01.2018 03:00:00 3,9 3,8 0 0 N 1030,5 -
22.01.2018 02:00:00 4,6 4,5 0 0 N 1030,7 -
22.01.2018 01:00:00 5,0 4,7 0 0 N 1031,1 -
22.01.2018 00:00:00 5,8 5,4 0 0 N 1031,0 -
21.01.2018 23:00:00 6,6 6,2 0 0 N 1031,2 -
21.01.2018 22:00:00 7,3 6,4 0 0 N 1031,0 -
21.01.2018 21:00:00 8,5 7,3 0 0 N 1030,8 -
21.01.2018 20:00:00 10,4 8,5 0 0 N 1030,4 -
21.01.2018 19:00:00 12,5 8,8 0 0 N 1029,6 -
21.01.2018 18:00:00 15,8 9,7 0 0 N 1029,0 -
21.01.2018 17:00:00 16,7 9,1 0 0 N 1028,9 -
21.01.2018 16:00:00 16,5 9,2 0 0 N 1029,0 7
21.01.2018 15:00:00 14,7 9,4 0 0 N 1029,8 -
21.01.2018 14:00:00 12,5 8,3 8 4 ENE 1030,6 -
21.01.2018 13:00:00 11,0 7,6 11 6 E 1032,1 10
21.01.2018 12:00:00 8,9 7,3 4 2 E 1032,8 -
21.01.2018 11:00:00 5,1 5,1 4 2 E 1033,1 -
21.01.2018 10:00:00 3,4 3,4 9 5 ENE 1032,6 0,3
21.01.2018 09:00:00 1,4 1,4 0 0 N 1032,1 -
21.01.2018 08:00:00 1,8 1,8 0 0 N 1031,7 -
21.01.2018 07:00:00 2,2 2,2 0 0 N 1031,1 0,5
21.01.2018 06:00:00 2,2 2,2 0 0 N 1030,6 -
21.01.2018 05:00:00 2,7 2,7 0 0 N 1030,6 -
21.01.2018 04:00:00 2,8 2,8 0 0 N 1030,9 -
21.01.2018 03:00:00 3,3 3,2 0 0 N 1030,9 -
21.01.2018 02:00:00 4,7 4,6 0 0 N 1031,1 -
21.01.2018 01:00:00 5,0 4,9 0 0 N 1031,5 -
21.01.2018 00:00:00 5,3 5,0 0 0 N 1031,2 -
20.01.2018 23:00:00 5,8 5,1 0 0 N 1031,0 -
20.01.2018 22:00:00 7,2 6,5 4 2 WSW 1030,6 -
20.01.2018 21:00:00 8,1 6,7 4 2 S 1030,3 -
20.01.2018 20:00:00 9,4 7,5 5 3 S 1029,7 -
20.01.2018 19:00:00 11,3 8,3 8 4 WSW 1028,8 -
20.01.2018 18:00:00 14,5 9,0 8 4 WSW 1028,2 -
20.01.2018 17:00:00 15,4 8,9 9 5 W 1028,2 -
20.01.2018 16:00:00 15,8 8,2 2 1 WSW 1028,0 15
20.01.2018 15:00:00 15,4 7,5 0 0 N 1028,2 -
20.01.2018 14:00:00 15,0 8,2 4 2 E 1029,1 -
20.01.2018 13:00:00 13,2 7,5 2 1 ESE 1030,3 8
20.01.2018 12:00:00 10,4 6,6 5 3 ENE 1030,9 -
20.01.2018 11:00:00 8,0 5,8 9 5 E 1031,1 -
20.01.2018 10:00:00 5,1 4,8 0 0 N 1030,7 6
20.01.2018 09:00:00 1,9 1,8 0 0 N 1030,2 -
20.01.2018 08:00:00 2,0 1,9 0 0 N 1029,2 -
20.01.2018 07:00:00 2,0 1,9 0 0 N 1028,5 -
20.01.2018 06:00:00 2,1 2,0 5 3 E 1027,7 -
20.01.2018 05:00:00 2,4 2,3 0 0 N 1027,4 -
20.01.2018 04:00:00 3,0 2,9 0 0 N 1027,7 -
20.01.2018 03:00:00 3,6 3,5 0 0 N 1027,6 -
20.01.2018 02:00:00 3,7 3,4 0 0 N 1026,8 -
20.01.2018 01:00:00 4,8 4,5 0 0 N 1027,0 -
20.01.2018 00:00:00 5,3 4,7 0 0 N 1026,8 -
19.01.2018 23:00:00 6,1 5,2 0 0 N 1026,1 -
19.01.2018 22:00:00 7,5 6,4 0 0 N 1025,6 -
19.01.2018 21:00:00 8,7 6,7 0 0 N 1024,6 -
19.01.2018 20:00:00 10,5 7,7 0 0 N 1023,8 -
19.01.2018 19:00:00 13,3 8,1 0 0 N 1022,7 -
19.01.2018 18:00:00 16,0 9,0 4 2 WSW 1021,4 -
19.01.2018 17:00:00 17,7 9,2 0 0 N 1020,9 -
19.01.2018 16:00:00 17,3 7,8 0 0 N 1020,8 20
19.01.2018 15:00:00 17,0 7,3 0 0 N 1020,9 -
19.01.2018 14:00:00 15,4 8,0 0 0 N 1021,5 -
19.01.2018 13:00:00 13,0 6,8 0 0 N 1021,9 -
19.01.2018 12:00:00 10,9 7,0 0 0 N 1022,3 -
19.01.2018 11:00:00 7,8 6,7 0 0 N 1022,0 -
19.01.2018 10:00:00 5,1 5,1 0 0 N 1021,6 8
19.01.2018 09:00:00 3,1 3,1 0 0 N 1021,0 -
19.01.2018 08:00:00 4,0 4,0 0 0 N 1020,5 -
19.01.2018 07:00:00 3,8 3,7 0 0 N 1020,0 -
19.01.2018 06:00:00 4,7 4,6 2 1 NNW 1019,4 -
19.01.2018 05:00:00 4,6 4,5 0 0 N 1019,7 -
19.01.2018 04:00:00 4,9 4,6 0 0 N 1019,9 -
19.01.2018 03:00:00 5,2 4,8 0 0 N 1019,9 -
19.01.2018 02:00:00 6,1 5,8 2 1 NNE 1020,1 -
19.01.2018 01:00:00 6,2 5,9 2 1 NW 1019,9 -
19.01.2018 00:00:00 6,3 5,7 0 0 N 1019,8 -
18.01.2018 23:00:00 7,1 6,4 0 0 N 1020,1 -
18.01.2018 22:00:00 7,7 6,6 0 0 N 1020,2 -
18.01.2018 21:00:00 9,1 7,3 0 0 N 1020,0 -
18.01.2018 20:00:00 9,7 8,0 0 0 N 1020,3 -
18.01.2018 19:00:00 11,6 8,2 0 0 N 1020,4 -
18.01.2018 18:00:00 13,9 7,6 0 0 N 1020,2 -
18.01.2018 17:00:00 15,2 8,0 0 0 N 1020,1 -
18.01.2018 16:00:00 15,6 7,4 0 0 N 1020,2 30
18.01.2018 15:00:00 16,5 6,2 9 5 E 1020,5 -
18.01.2018 14:00:00 16,0 6,1 5 3 E 1021,3 -
18.01.2018 13:00:00 14,0 5,4 8 4 E 1022,7 40
18.01.2018 12:00:00 13,2 5,7 9 5 E 1023,8 -
18.01.2018 11:00:00 10,2 4,9 4 2 E 1023,8 -
18.01.2018 10:00:00 7,3 4,1 8 4 ENE 1023,7 40
18.01.2018 09:00:00 3,5 2,3 4 2 ENE 1023,5 -

tt = Température de l'air
td = dewpoint
ff = Vitesse du vent
dd = Direction du vent
ppp = reduced air pressure
vv = visibility

stations d'obs. à proximité